Onweer van: 25-07-2021 11:00 tot: 20:00 waarschuwing voor: Onweer niveau: Geel info button


waarschuwing voor Onweer Meer informatie blitzortung!


Regen radar Meer informatie rain snow radar


Bezoek onze andere website:

Template documentation
and downloads

And another site



15 daagse weersverwachting Lillestrøm (NO)

  • Overzicht
  • Per uur
  • 15 dagen
  • Extra
  • Vergelijk
  • Kaarten
  • Dagkaart
  • Meer »
  • Info
  • Statistieken
  • Directe link
    Temp 6h Neerslag Wind  
 04:45     22:02    Daglengte: 17:17 Vandaag
08:00
19°
 
1
14:00
27°
 
3
20:00
25°
 
3
 04:47     21:59    Daglengte: 17:12 Morgen
02:00
17°
 
1
08:00
19°
 
2
14:00
25°
 
4
20:00
24°
 
2
 04:49     21:57    Daglengte: 17:08 Dinsdag 27 Jul
02:00
19°
4.2 mm
2
08:00
19°
12.0 mm
3
14:00
22°
11.2 mm
2
20:00
19°
35.1 mm
4
warningclass
 04:52     21:55    Daglengte: 17:03 Woensdag 28 Jul
02:00
17°
34.1 mm
3
Locatie info
Region: Akershus
Latitude: 59.9570°N
Longitude: 11.0483°E
116 masl
Postcode: 2000
Temp/Neerslag /Baro Onweer/Dauwpunt
    Temp Baro 1h Neerslag Dauwpunt Wind UV Bewolking  
 04:45     22:02    Daglengte: 17:17 Vandaag
06:00
15°
1016.1 hPa   13.8°
1
Windvlaag: -0.5 m/s
4%
07:00
17°
1016.1 hPa   14.8°
1
Windvlaag: -0.2 m/s
3%
08:00
19°
1016.2 hPa   16.1°
1
Windvlaag: -1.5 m/s
2%
09:00
21°
1016.3 hPa   15.9°
1
Windvlaag: -0.6 m/s
2%
10:00
23°
1016.5 hPa   16.1°
1
Windvlaag: 0.5 m/s
2%
11:00
25°
1016.4 hPa   15.2°
2
Windvlaag: -0.1 m/s
1%
12:00
26°
1016.3 hPa   13.9°
2
Windvlaag: 0.3 m/s
4%
13:00
27°
Voelt als: 26.9°
1016.0 hPa   12.9°
3
Windvlaag: 2.4 m/s
8%
14:00
27°
Voelt als: 27.2°
1015.8 hPa   12.8°
3
Windvlaag: 2.6 m/s
18%
15:00
28°
Voelt als: 27.5°
1015.5 hPa   12.9°
3
Windvlaag: 3.4 m/s
12%
16:00
28°
Voelt als: 27.3°
1015.3 hPa   12.3°
4
Windvlaag: 6.8 m/s
12%
17:00
27°
Voelt als: 27.2°
1015.1 hPa   12.3°
3
Windvlaag: 6.6 m/s
28%
18:00
27°
Voelt als: 26.9°
1014.8 hPa   11.9°
4
Windvlaag: 4.7 m/s
51%
19:00
27°
1014.8 hPa   12.1°
3
Windvlaag: 4.3 m/s
54%
20:00
25°
1015.1 hPa   12.7°
3
Windvlaag: 5.2 m/s
59%
21:00
24°
1015.4 hPa   15.0°
2
Windvlaag: 5.4 m/s
68%
22:00
22°
1015.8 hPa   17.0°
2
Windvlaag: 4.8 m/s
69%
23:00
20°
1016.2 hPa   17.1°
1
Windvlaag: 3.2 m/s
66%
 04:47     21:59    Daglengte: 17:12 Morgen
00:00
19°
1016.3 hPa   16.4°
1
Windvlaag: 1 m/s
55%
01:00
18°
1016.4 hPa   15.8°
1
Windvlaag: 1.7 m/s
62%
02:00
17°
1016.3 hPa   15.8°
1
Windvlaag: 0.5 m/s
55%
03:00
16°
1016.4 hPa   15.3°
1
Windvlaag: -0.1 m/s
54%
04:00
16°
1016.4 hPa   15.0°
1
Windvlaag: 0.4 m/s
48%
05:00
15°
1016.4 hPa   14.6°
2
Windvlaag: 0.2 m/s
50%
06:00
15°
1016.5 hPa   14.4°
2
Windvlaag: -0.1 m/s
34%
07:00
17°
1016.6 hPa   15.6°
2
Windvlaag: -0.4 m/s
31%
08:00
19°
1016.7 hPa   16.4°
2
Windvlaag: 0 m/s
70%
09:00
21°
1016.9 hPa   16.4°
2
Windvlaag: 0.6 m/s
21%
10:00
22°
1016.7 hPa   16.2°
3
Windvlaag: 1.5 m/s
48%
11:00
24°
1016.7 hPa   14.1°
3
Windvlaag: 3.1 m/s
10%
12:00
24°
1016.4 hPa   13.4°
3
Windvlaag: 4.2 m/s
25%
13:00
25°
1016.0 hPa   13.4°
4
Windvlaag: 4.9 m/s
64%
14:00
25°
1015.8 hPa   13.1°
4
Windvlaag: 5.5 m/s
60%
15:00
24°
1015.5 hPa   13.6°
4
Windvlaag: 5.2 m/s
65%
16:00
24°
1015.2 hPa   12.8°
3
Windvlaag: 4.6 m/s
79%
17:00
25°
1014.5 hPa   13.4°
3
Windvlaag: 1 m/s
81%
18:00
25°
1014.3 hPa   14.5°
2
Windvlaag: -1.9 m/s
79%
19:00
24°
1014.0 hPa   14.8°
3
Windvlaag: -1.9 m/s
85%
20:00
24°
1013.8 hPa   16.6°
2
Windvlaag: -1.5 m/s
74%
21:00
23°
1013.7 hPa
80%
17.8°
2
Windvlaag: -0.7 m/s
83%
22:00
22°
1013.7 hPa
79%
17.7°
2
Windvlaag: -0.8 m/s
84%
23:00
21°
1012.7 hPa
52%
19.3°
2
Windvlaag: -0.5 m/s
95%
 04:49     21:57    Daglengte: 17:08 Dinsdag 27 Jul
00:00
20°
1012.6 hPa 1.2 mm
85%
18.6°
2
Windvlaag: 3.6 m/s
99%
01:00
20°
1012.5 hPa 1.4 mm
90%
17.6°
2
Windvlaag: 7.5 m/s
99%
02:00
19°
1012.4 hPa 1.5 mm
99%
16.5°
2
Windvlaag: 1.7 m/s
96%
03:00
18°
1012.0 hPa 1.4 mm
100%
16.4°
3
Windvlaag: 1.8 m/s
95%
04:00
18°
1012.0 hPa 1.9 mm
95%
16.7°
2
Windvlaag: -0 m/s
100%
05:00
18°
1011.6 hPa 2.5 mm
35%
16.8°
2
Windvlaag: 0.1 m/s
96%
06:00
18°
1011.2 hPa 3.0 mm
37%
16.9°
3
Windvlaag: -1.5 m/s
92%
07:00
18°
1011.1 hPa 3.1 mm
39%
17.3°
3
Windvlaag: -2.3 m/s
93%
08:00
19°
1010.9 hPa
80%
17.7°
3
Windvlaag: -2.6 m/s
93%
09:00
20°
1009.7 hPa
90%
19.1°
3
Windvlaag: 6.2 m/s
77%
10:00
21°
1009.5 hPa
37%
20.1°
3
Windvlaag: 4.4 m/s
99%
11:00
21°
1009.3 hPa 3.6 mm
100%
19.1°
3
Windvlaag: 3.5 m/s
99% warningclass
12:00
21°
1008.8 hPa 3.8 mm
100%
17.3°
2
Windvlaag: 3.5 m/s
100% warningclass
13:00
22°
1008.2 hPa 3.8 mm
100%
17.6°
2
Windvlaag: 4 m/s
100% warningclass
14:00
22°
1007.6 hPa
50%
19.1°
2
Windvlaag: 5 m/s
98%
15:00
22°
1007.5 hPa 4.5 mm
100%
20.5°
3
Windvlaag: 9.8 m/s
98% warningclass
16:00
20°
1007.3 hPa 5.8 mm
100%
18.4°
3
Windvlaag: 3.7 m/s
98%
17:00
20°
1006.9 hPa 5.7 mm
100%
17.4°
3
Windvlaag: 3.3 m/s
100% warningclass
18:00
20°
1006.4 hPa 6.3 mm
100%
17.1°
3
Windvlaag: 5.9 m/s
99%
19:00
20°
1006.2 hPa 6.1 mm
100%
15.6°
4
Windvlaag: 7.6 m/s
97%
20:00
19°
1006.2 hPa 6.8 mm
100%
16.0°
4
Windvlaag: 9 m/s
92% warningclass
21:00
19°
1006.4 hPa 6.7 mm
100%
16.0°
3
Windvlaag: 8.7 m/s
80% warningclass
22:00
18°
1006.5 hPa 6.2 mm
100%
16.4°
2
Windvlaag: 9.6 m/s
70% warningclass
23:00
17°
1006.5 hPa 5.5 mm
100%
16.6°
2
Windvlaag: 9.6 m/s
56% warningclass
 04:52     21:55    Daglengte: 17:03 Woensdag 28 Jul
00:00
17°
1006.5 hPa
91%
16.6°
2
Windvlaag: 8.2 m/s
73%
01:00
17°
1006.3 hPa
40%
16.4°
3
Windvlaag: 8.2 m/s
68%
02:00
17°
1006.3 hPa
84%
16.4°
3
Windvlaag: 8.6 m/s
77%
Temp/Neerslag /Baro Onweer/Dauwpunt
    Temp Baro Neerslag Dauwpunt Wind Bewolking  
 04:45     22:02    Daglengte: 17:17 Vandaag
08:00
19°
1016.2 hPa   16.1°
1
2%
11:00
25°
1016.4 hPa   15.2°
2
1%
14:00
27°
Voelt als: 27.2°
1015.8 hPa   12.8°
3
18%
17:00
27°
Voelt als: 27.2°
1015.1 hPa   12.3°
3
28%
20:00
25°
1015.1 hPa   12.7°
3
59%
23:00
20°
1016.2 hPa   17.1°
1
66%
 04:47     21:59    Daglengte: 17:12 Morgen
02:00
17°
1016.3 hPa   15.8°
1
55%
05:00
15°
1016.4 hPa   14.6°
2
50%
08:00
19°
1016.7 hPa   16.4°
2
70%
11:00
24°
1016.7 hPa   14.1°
3
10%
14:00
25°
1015.8 hPa   13.1°
4
60%
17:00
25°
1014.5 hPa   13.4°
3
81%
20:00
24°
1013.8 hPa   16.6°
2
74%
23:00
21°
1012.7 hPa   19.3°
2
95%
 04:49     21:57    Daglengte: 17:08 Dinsdag 27 Jul
02:00
19°
1012.4 hPa 4.2 mm 16.5°
2
96%
05:00
18°
1011.6 hPa 5.9 mm 16.8°
2
96%
08:00
19°
1010.9 hPa 6.1 mm 17.7°
3
93%
11:00
21°
1009.3 hPa 3.6 mm 19.1°
3
99% warningclass
14:00
22°
1007.6 hPa 7.6 mm 19.1°
2
98%
17:00
20°
1006.9 hPa 15.9 mm 17.4°
3
100% warningclass
20:00
19°
1006.2 hPa 19.2 mm 16.0°
4
92% warningclass
23:00
17°
1006.5 hPa 18.4 mm 16.6°
2
56% warningclass
 04:52     21:55    Daglengte: 17:03 Woensdag 28 Jul
02:00
17°
1006.3 hPa 15.7 mm 16.4°
3
77%
05:00
15°
1007.3 hPa 21.2 mm 15.0°
1
1%
08:00
17°
1006.9 hPa 21.6 mm 16.3°
0
1%
11:00
19°
1006.0 hPa 22.6 mm 16.9°
0
1%
14:00
19°
1005.5 hPa 24.4 mm 17.1°
2
1%
17:00
21°
1004.2 hPa 25.2 mm 15.3°
3
1%
20:00
19°
1003.6 hPa 25.2 mm 14.1°
3
1%
23:00
14°
1003.4 hPa 25.2 mm 13.8°
2
1%
 04:54     21:52    Daglengte: 16:58 Donderdag 29 Jul
02:00
13°
1002.4 hPa 25.2 mm 13.3°
2
1%
05:00
13°
1001.6 hPa 25.2 mm 12.5°
2
0%
08:00
16°
1001.0 hPa 25.2 mm 13.2°
3
0%
11:00
21°
1000.6 hPa 25.2 mm 11.5°
4
0%
14:00
24°
999.9 hPa 25.2 mm 8.5°
5
0%
17:00
23°
1000.0 hPa 25.2 mm 7.7°
6
0%
20:00
18°
1000.4 hPa 25.2 mm 11.8°
6
0%
23:00
15°
1000.2 hPa 25.2 mm 12.2°
4
0%
 04:56     21:50    Daglengte: 16:54 Vrijdag 30 Jul
02:00
14°
998.9 hPa 25.2 mm 12.3°
2
0%
05:00
13°
996.4 hPa 26.4 mm 12.8°
2
1%
08:00
13°
994.5 hPa 33.9 mm 12.1°
2
1%
11:00
14°
993.6 hPa 36.8 mm 12.2°
4
1%
14:00
15°
992.7 hPa 38.7 mm 12.4°
6
1%
17:00
13°
992.5 hPa 39.9 mm 10.5°
4
1%
20:00
13°
991.8 hPa 40.2 mm 9.5°
4
1%
23:00
11°
992.5 hPa 40.4 mm 9.7°
1
1%
 04:59     21:47    Daglengte: 16:48 Zaterdag 31 Jul
02:00
11°
993.8 hPa 40.8 mm 10.4°
1
1%
05:00
11°
995.2 hPa 40.8 mm 10.1°
1
1%
08:00
12°
996.5 hPa 40.8 mm 9.7°
2
1%
11:00
12°
998.2 hPa 40.9 mm 9.1°
2
1%
14:00
16°
998.4 hPa 41.3 mm 8.5°
3
1%
17:00
16°
998.2 hPa 41.4 mm 8.2°
2
1%
20:00
14°
998.6 hPa 41.4 mm 9.1°
2
1%
23:00
12°
999.2 hPa 41.5 mm 8.2°
2
1%
 05:01     21:45    Daglengte: 16:44 Zondag 01 Aug
02:00
11°
999.7 hPa 41.6 mm 8.1°
3
1%
05:00
11°
1000.2 hPa   9.6°
3
1%
08:00
11°
1001.2 hPa 83.4 mm 9.3°
3
1%
14:00
13°
1003.4 hPa 84.1 mm 8.7°
2
1%
20:00
16°
1003.8 hPa 84.3 mm 9.6°
0
1%
 05:03     21:42    Daglengte: 16:39 Maandag 02 Aug
02:00
12°
1006.0 hPa 84.5 mm 8.2°
1
1%
08:00
12°
1007.9 hPa 84.5 mm 8.5°
1
1%
14:00
21°
1008.4 hPa 84.5 mm 7.1°
1
1%
20:00
16°
1009.5 hPa 84.5 mm 9.4°
0
1%
 05:06     21:40    Daglengte: 16:34 Dinsdag 03 Aug
02:00
13°
1011.6 hPa 84.5 mm 8.7°
1
1%
14:00
21°
1013.0 hPa 126.7 mm 8.1°
0
1%
20:00
17°
1012.1 hPa 84.6 mm 10.0°
2
1%
 05:08     21:37    Daglengte: 16:29 Woensdag 04 Aug
02:00
11°
1005.3 hPa 0.3 mm 9.4°
1
50%
08:00
13°
1005.9 hPa 0.2 mm 10.2°
1
58%
14:00
20°
1005.4 hPa 0.2 mm 10.6°
1
68%
20:00
17°
1005.5 hPa 1.7 mm 11.8°
1
64%
 05:10     21:35    Daglengte: 16:25 Donderdag 05 Aug
02:00
12°
1007.1 hPa 0.4 mm 10.4°
1
66%
08:00
14°
1007.5 hPa 0.7 mm 11.5°
1
66%
14:00
20°
1007.2 hPa 1.3 mm 12.0°
2
67%
20:00
17°
1007.1 hPa 1.6 mm 12.5°
2
67%
 05:13     21:32    Daglengte: 16:19 Vrijdag 06 Aug
02:00
12°
1008.3 hPa 0.7 mm 10.8°
1
61%
08:00
14°
1008.4 hPa 0.8 mm 11.8°
1
67%
14:00
19°
1007.8 hPa 1.5 mm 12.5°
2
69%
20:00
17°
1007.3 hPa 1.5 mm 12.6°
2
60%
 05:15     21:30    Daglengte: 16:15 Zaterdag 07 Aug
02:00
12°
1008.5 hPa 0.5 mm 10.9°
1
56%
08:00
14°
1008.6 hPa 0.9 mm 11.7°
1
63%
14:00
19°
1007.9 hPa 1.8 mm 12.6°
1
68%
20:00
17°
1007.5 hPa 1.7 mm 12.7°
1
65%
 05:17     21:27    Daglengte: 16:10 Zondag 08 Aug
02:00
12°
1008.5 hPa 1.2 mm 11.1°
1
66%
08:00
14°
1008.1 hPa 2.0 mm 11.8°
1
73%
14:00
19°
1007.4 hPa 2.1 mm 12.9°
1
71%
20:00
17°
1007.1 hPa 2.9 mm 12.8°
1
79%
 05:20     21:24    Daglengte: 16:04 Maandag 09 Aug
02:00
13°
1007.7 hPa 1.4 mm 11.7°
0
72%
08:00
14°
1007.6 hPa 1.3 mm 12.0°
0
77%
  CAPE Lifted Index Hail Supercell Tornado SRH 3km CL BTM PRES CL TOP PRES Swiss DWD icon SMHI TS
 04:45     22:02    Daglengte: 17:17 Vandaag
06:00 0 J/kg 3.6 K 0 % 0 % 0 % 0 m²/s² 0 0 6.24 0
07:00 0 J/kg 2.9 K 0 % 0 % 0 % 0 m²/s² 0 0 5.93 0
08:00 0 J/kg 1.4 K 0 % 0 % 0 % 0 m²/s² 0 0 4.52 0
09:00 0 J/kg 0.4 K 0 % 0 % 0 % 0 m²/s² 0 0 3.97 0
10:00 0 J/kg -0.5 K 0 % 0 % 0 % 0 m²/s² 0 0 2.8 0
11:00 266 J/kg -1.2 K 0 % 0 % 0 % 0 m²/s² 0 0 1.86 1
12:00 337 J/kg -1.4 K 0 % 0 % 0 % 0 m²/s² 0 0 1.81 1
13:00 279 J/kg -1.2 K 0 % 0 % 0 % 0 m²/s² 0 0 2.37 2
14:00 306 J/kg -1.4 K 0 % 0 % 0 % 0 m²/s² 0 0 2.68 3
15:00 314 J/kg -1.6 K 0 % 0 % 0 % 0 m²/s² 0 0 2.6 2
16:00 283 J/kg -1.4 K 0 % 0 % 0 % 0 m²/s² 0 0 2.59 2
17:00 124 J/kg -0.6 K 0 % 0 % 0 % 0 m²/s² 0 0 3.18 2
18:00 9 J/kg 0.3 K 0 % 0 % 0 % 0 m²/s² 0 0 5.31 3
19:00 0 J/kg 0.4 K 0 % 0 % 0 % 0 m²/s² 0 0 4.93 3
20:00 2 J/kg 0.1 K 0 % 0 % 0 % 0 m²/s² 0 0 4.63 3
21:00 0 J/kg 0.7 K 0 % 0 % 0 % 0 m²/s² 0 0 5.26 3
22:00 0 J/kg 1.5 K 0 % 0 % 0 % 0 m²/s² 0 0 6.06 3
23:00 0 J/kg 2.5 K 0 % 0 % 0 % 0 m²/s² 0 0 7.06 3
 04:47     21:59    Daglengte: 17:12 Morgen
00:00 0 J/kg 2.8 K 0 % 0 % 0 % 0 m²/s² 0 0 7.33 3
01:00 0 J/kg 3.4 K 0 % 0 % 0 % 0 m²/s² 0 0 8.05 3
02:00 0 J/kg 3.7 K 0 % 0 % 0 % 0 m²/s² 0 0 8.23 3
03:00 0 J/kg 3.1 K 0 % 0 % 0 % 0 m²/s² 0 0 7.51 3
04:00 0 J/kg 3.2 K 0 % 0 % 0 % 0 m²/s² 0 0 7.64 3
05:00 0 J/kg 3.5 K 0 % 0 % 0 % 0 m²/s² 0 0 8.06 3
06:00 0 J/kg 3.6 K 0 % 0 % 0 % 0 m²/s² 0 0 8.28 3
07:00 0 J/kg 4.0 K 0 % 0 % 0 % 0 m²/s² 0 0 8.68 2
08:00 0 J/kg 3.4 K 0 % 0 % 0 % 0 m²/s² 0 0 8.2 3
09:00 0 J/kg 2.6 K 0 % 0 % 0 % 0 m²/s² 0 0 6.92 3
10:00 0 J/kg 3.1 K 0 % 0 % 0 % 0 m²/s² 0 0 7.78 3
11:00 0 J/kg 3.0 K 0 % 0 % 0 % 0 m²/s² 0 0 7.56 2
12:00 0 J/kg 3.3 K 0 % 0 % 0 % 0 m²/s² 0 0 7.74 3
13:00 0 J/kg 2.1 K 0 % 0 % 0 % 0 m²/s² 0 0 6.12 3
14:00 13 J/kg 0.7 K 0 % 0 % 0 % 0 m²/s² 0 0 4.42 3
15:00 110 J/kg 0.0 K 0 % 0 % 0 % 0 m²/s² 0 0 3.33 3
16:00 185 J/kg -0.4 K 0 % 0 % 0 % 0 m²/s² 0 0 2.75 3
17:00 126 J/kg -0.1 K 0 % 0 % 0 % 0 m²/s² 0 0 3.32 3
18:00 67 J/kg 0.7 K 0 % 0 % 0 % 0 m²/s² 0 0 4.03 3
19:00 74 J/kg 0.6 K 0 % 0 % 0 % 0 m²/s² 0 0 2.37 3
20:00 136 J/kg 0.2 K 0 % 0 % 0 % 0 m²/s² 0 0 0.65 3
21:00 40 J/kg 1.0 K 0 % 0 % 0 % 0 m²/s² 0 0 1 3
22:00 10 J/kg 0.1 K 0 % 0 % 0 % 0 m²/s² 0 0 0.19 3
23:00 6 J/kg -0.9 K 0 % 0 % 0 % 0 m²/s² 0 0 -0.54 3
 04:49     21:57    Daglengte: 17:08 Dinsdag 27 Jul
00:00 1 J/kg -1.2 K 0 % 0 % 0 % 0 m²/s² 0 0 -1.08 3
01:00 0 J/kg -2.0 K 0 % 0 % 0 % 0 m²/s² 0 0 -1.34 80
02:00 0 J/kg -2.8 K 0 % 0 % 0 % 0 m²/s² 0 0 -1.69 80
03:00 0 J/kg -3.3 K 0 % 0 % 0 % 0 m²/s² 0 0 -2.04 3
04:00 0 J/kg -3.4 K 0 % 0 % 0 % 0 m²/s² 0 0 -2.17 3
05:00 0 J/kg -3.6 K 0 % 0 % 0 % 0 m²/s² 0 0 -2.97 3
06:00 0 J/kg -2.9 K 0 % 0 % 0 % 0 m²/s² 0 0 -2.03 3
07:00 0 J/kg -2.4 K 0 % 0 % 0 % 0 m²/s² 0 0 -1.86 3
08:00 30 J/kg -1.5 K 0 % 0 % 0 % 0 m²/s² 0 0 -0.87 3
09:00 96 J/kg -1.3 K 0 % 0 % 0 % 0 m²/s² 0 0 -0.85 3
10:00 368 J/kg -2.2 K 0 % 0 % 0 % 0 m²/s² 0 0 -0.82 3
11:00 800 J/kg -3.6 K 0 % 0 % 0 % 0 m²/s² 0 0 -2.01 61
12:00 1221 J/kg -4.5 K 0 % 0 % 0 % 0 m²/s² 0 0 -3.03 61
13:00 1435 J/kg -5.4 K 0 % 0 % 0 % 0 m²/s² 0 0 -4.08 61
14:00 1546 J/kg -6.2 K 0 % 0 % 0 % 0 m²/s² 0 0 -4.82 3
15:00 1072 J/kg -4.3 K 0 % 0 % 0 % 0 m²/s² 0 0 -3.49 61
16:00 478 J/kg -3.1 K 0 % 0 % 0 % 0 m²/s² 0 0 -1.39 61
17:00 717 J/kg -4.4 K 0 % 0 % 0 % 0 m²/s² 0 0 -2.3 61
18:00 757 J/kg -3.7 K 0 % 0 % 0 % 0 m²/s² 0 0 -0.73 61
19:00 612 J/kg -2.8 K 0 % 0 % 0 % 0 m²/s² 0 0 -0.37 80
20:00 403 J/kg -1.8 K 0 % 0 % 0 % 0 m²/s² 0 0 0.54 95
21:00 34 J/kg -0.1 K 0 % 0 % 0 % 0 m²/s² 0 0 2.78 95
22:00 1 J/kg 0.8 K 0 % 0 % 0 % 0 m²/s² 0 0 3.62 95
23:00 4 J/kg 0.8 K 0 % 0 % 0 % 0 m²/s² 0 0 3.53 95
 04:52     21:55    Daglengte: 17:03 Woensdag 28 Jul
00:00 8 J/kg 1.2 K 0 % 0 % 0 % 0 m²/s² 0 0 4.26 3
01:00 20 J/kg 1.2 K 0 % 0 % 0 % 0 m²/s² 0 0 4.11 2
02:00 19 J/kg 1.2 K 0 % 0 % 0 % 0 m²/s² 0 0 4.17 3
Temp Baro Wind Neerslag
  EWN Forecast EWN WRFDA DWD ICON FMI HIRLAM MET Norway GFS
 04:45     22:02    Daglengte: 17:17 Vandaag
08:00 19.1° 1016.2 hPa 1.2 m/s 0.0 mm 18.6° 1015.7 hPa 1.6 m/s 0.0 mm 20.0° 1015.9 hPa 0.8 m/s -2.0 mm 15.9° 1016.7 hPa 1.7 m/s 0.0 mm 19.7° 1016.4 hPa 0.7 m/s
11:00 24.9° 1016.4 hPa 1.7 m/s 0.0 mm 24.2° 1015.4 hPa 1.9 m/s 0.0 mm 25.6° 1015.8 hPa 2.1 m/s 0.0 mm 24.8° 1016.8 hPa 1.5 m/s 0.0 mm 25.8° 1016.1 hPa 1.2 m/s
14:00 27.4° 1015.8 hPa 2.8 m/s 0.0 mm 26.4° 1015.1 hPa 2.6 m/s 0.0 mm 27.4° 1015.0 hPa 3.2 m/s 0.0 mm 27.2° 1016.3 hPa 2.2 m/s 0.0 mm 28.7° 1015.0 hPa 1.8 m/s
17:00 27.5° 1015.1 hPa 3.5 m/s 0.0 mm 26.6° 1014.6 hPa 4.2 m/s 0.0 mm 27.6° 1014.4 hPa 4.4 m/s 0.0 mm 27.4° 1015.4 hPa 2.9 m/s 0.0 mm 28.5° 1014.0 hPa 3.4 m/s
20:00 25.5° 1015.1 hPa 3.2 m/s 0.0 mm 24.7° 1014.6 hPa 3.0 m/s 0.0 mm 25.4° 1014.6 hPa 3.0 m/s 0.0 mm 25.1° 1015.4 hPa 2.4 m/s 0.0 mm 24.4° 1014.4 hPa 2.2 m/s
23:00 20.0° 1016.2 hPa 1.4 m/s 0.0 mm 18.1° 1015.4 hPa 2.9 m/s 0.0 mm 20.2° 1016.1 hPa 1.3 m/s 0.0 mm 17.4° 1016.9 hPa 0.9 m/s 0.0 mm 17.6° 1015.8 hPa 0.5 m/s
 04:47     21:59    Daglengte: 17:12 Morgen
02:00 17.2° 1016.3 hPa 1.2 m/s 0.0 mm 15.6° 1015.4 hPa 2.6 m/s 0.0 mm 17.4° 1016.2 hPa 0.5 m/s 0.0 mm 14.1° 1017.6 hPa 1.1 m/s 0.0 mm 15.6° 1016.3 hPa 1.0 m/s
05:00 15.4° 1016.4 hPa 1.6 m/s 0.0 mm 14.4° 1015.1 hPa 2.2 m/s 0.0 mm 15.4° 1016.3 hPa 1.1 m/s 0.0 mm 12.3° 1017.5 hPa 1.4 m/s 0.0 mm 14.4° 1016.3 hPa 1.4 m/s
08:00 19.1° 1016.7 hPa 2.0 m/s 0.0 mm 17.6° 1015.1 hPa 2.9 m/s 0.0 mm 19.7° 1016.7 hPa 1.6 m/s 0.0 mm 16.0° 1017.5 hPa 1.9 m/s 0.0 mm 18.3° 1016.4 hPa 1.5 m/s
11:00 23.5° 1016.7 hPa 3.2 m/s 0.0 mm 22.3° 1014.9 hPa 3.7 m/s 0.0 mm 23.8° 1016.4 hPa 3.8 m/s 0.0 mm 22.8° 1017.4 hPa 2.3 m/s 0.0 mm 23.2° 1016.1 hPa 2.2 m/s
14:00 24.9° 1015.8 hPa 3.8 m/s 0.0 mm 25.1° 1013.3 hPa 5.0 m/s 0.0 mm 25.9° 1014.9 hPa 4.5 m/s 0.0 mm 22.6° 1016.6 hPa 3.1 m/s 0.0 mm 25.6° 1014.3 hPa 3.2 m/s
17:00 24.7° 1014.5 hPa 2.7 m/s 0.0 mm 26.5° 1011.6 hPa 5.3 m/s 0.0 mm 26.9° 1013.4 hPa 3.9 m/s 0.0 mm 23.0° 1015.4 hPa 2.2 m/s 0.0 mm 25.0° 1013.5 hPa 2.7 m/s
20:00 23.7° 1013.8 hPa 2.3 m/s 0.0 mm 22.6° 1010.8 hPa 5.5 m/s 0.0 mm 25.3° 1012.7 hPa 2.0 m/s 0.0 mm 22.7° 1014.6 hPa 1.6 m/s 0.0 mm 19.4° 1013.5 hPa 0.7 m/s
23:00 21.0° 1012.7 hPa 2.5 m/s 0.0 mm 18.4° 1009.5 hPa 6.0 m/s 6.2 mm 21.4° 1013.0 hPa 1.1 m/s 0.1 mm 17.4° 1013.5 hPa 1.9 m/s
 04:49     21:57    Daglengte: 17:08 Dinsdag 27 Jul
02:00 18.7° 1012.4 hPa 2.0 m/s 4.2 mm 17.9° 1007.5 hPa 4.9 m/s 11.0 mm 18.5° 1012.8 hPa 1.6 m/s 2.0 mm 15.6° 1013.8 hPa 1.5 m/s
05:00 18.0° 1011.6 hPa 2.5 m/s 5.9 mm 17.9° 1006.8 hPa 5.4 m/s 14.2 mm 17.8° 1011.8 hPa 2.1 m/s 0.5 mm 15.4° 1013.0 hPa 1.6 m/s
08:00 18.5° 1010.9 hPa 3.0 m/s 6.1 mm 18.0° 1005.1 hPa 3.7 m/s 23.1 mm 19.4° 1011.5 hPa 2.3 m/s 0.0 mm 17.4° 1012.1 hPa 2.2 m/s
11:00 21.1° 1009.3 hPa 3.0 m/s 3.6 mm 20.5° 1004.6 hPa 2.3 m/s 29.9 mm 21.3° 1010.4 hPa 3.1 m/s 0.3 mm 20.1° 1010.6 hPa 1.9 m/s
14:00 22.3° 1007.6 hPa 2.0 m/s 7.6 mm 22.0° 1003.8 hPa 2.7 m/s 32.7 mm 22.4° 1008.5 hPa 1.8 m/s 1.0 mm 18.1° 1009.8 hPa 1.1 m/s
17:00 19.7° 1006.9 hPa 3.0 m/s 15.9 mm 19.7° 1004.5 hPa 1.7 m/s 41.4 mm 19.7° 1007.5 hPa 3.3 m/s 3.2 mm 19.3° 1009.0 hPa 2.6 m/s
20:00 19.3° 1006.2 hPa 4.0 m/s 19.2 mm 19.5° 1004.6 hPa 5.7 m/s 46.4 mm 19.2° 1006.6 hPa 3.5 m/s 5.6 mm 19.5° 1008.5 hPa 1.7 m/s
23:00 17.4° 1006.5 hPa 2.0 m/s 18.4 mm 15.6° 1006.0 hPa 3.0 m/s 46.6 mm 17.8° 1006.6 hPa 1.7 m/s 4.3 mm 15.9° 1008.9 hPa 0.9 m/s
 04:52     21:55    Daglengte: 17:03 Woensdag 28 Jul
02:00 16.9° 1006.3 hPa 2.7 m/s 15.7 mm 15.6° 1005.4 hPa 3.5 m/s 46.7 mm 17.2° 1006.5 hPa 2.5 m/s 0.1 mm 14.8° 1008.4 hPa 0.7 m/s
05:00 15.2° 1007.3 hPa 0.9 m/s 21.2 mm 15.2° 1007.3 hPa 0.9 m/s 21.2 mm
08:00 16.8° 1006.9 hPa 0.3 m/s 21.6 mm 16.8° 1006.9 hPa 0.3 m/s 21.6 mm
11:00 18.9° 1006.0 hPa 0.3 m/s 22.6 mm 18.9° 1006.0 hPa 0.3 m/s 22.6 mm
14:00 18.8° 1005.5 hPa 1.8 m/s 24.4 mm 18.8° 1005.5 hPa 1.8 m/s 24.4 mm
17:00 21.3° 1004.2 hPa 3.0 m/s 25.2 mm 21.3° 1004.2 hPa 3.0 m/s 25.2 mm
20:00 19.2° 1003.6 hPa 3.1 m/s 25.2 mm 19.2° 1003.6 hPa 3.1 m/s 25.2 mm
23:00 14.3° 1003.4 hPa 1.9 m/s 25.2 mm 14.3° 1003.4 hPa 1.9 m/s 25.2 mm
 04:54     21:52    Daglengte: 16:58 Donderdag 29 Jul
02:00 13.4° 1002.4 hPa 1.9 m/s 25.2 mm 13.4° 1002.4 hPa 1.9 m/s 25.2 mm
05:00 12.7° 1001.6 hPa 2.0 m/s 25.2 mm 12.7° 1001.6 hPa 2.0 m/s 25.2 mm
08:00 16.1° 1001.0 hPa 3.1 m/s 25.2 mm 16.1° 1001.0 hPa 3.1 m/s 25.2 mm
11:00 20.6° 1000.6 hPa 3.8 m/s 25.2 mm 20.6° 1000.6 hPa 3.8 m/s 25.2 mm
14:00 23.8° 999.9 hPa 5.0 m/s 25.2 mm 23.8° 999.9 hPa 5.0 m/s 25.2 mm
17:00 23.2° 1000.0 hPa 6.0 m/s 25.2 mm 23.2° 1000.0 hPa 6.0 m/s 25.2 mm
20:00 18.4° 1000.4 hPa 5.7 m/s 25.2 mm 18.4° 1000.4 hPa 5.6 m/s 25.2 mm
23:00 14.8° 1000.2 hPa 4.0 m/s 25.2 mm 14.8° 1000.2 hPa 4.0 m/s 25.2 mm
 04:56     21:50    Daglengte: 16:54 Vrijdag 30 Jul
02:00 13.8° 998.9 hPa 2.3 m/s 25.2 mm 13.8° 998.9 hPa 2.3 m/s 25.2 mm
05:00 13.1° 996.4 hPa 1.6 m/s 26.4 mm 13.1° 996.4 hPa 1.6 m/s 26.4 mm
08:00 13.1° 994.5 hPa 2.2 m/s 33.9 mm 13.1° 994.5 hPa 2.2 m/s 33.9 mm
11:00 14.0° 993.6 hPa 3.8 m/s 36.8 mm 14.0° 993.6 hPa 3.8 m/s 36.8 mm
14:00 15.4° 992.7 hPa 5.8 m/s 38.7 mm 15.4° 992.7 hPa 5.8 m/s 38.7 mm
17:00 12.8° 992.5 hPa 3.8 m/s 39.9 mm 12.8° 992.5 hPa 3.8 m/s 39.9 mm
20:00 12.7° 991.8 hPa 4.4 m/s 40.2 mm 12.7° 991.8 hPa 4.4 m/s 40.2 mm
23:00 11.4° 992.5 hPa 1.4 m/s 40.4 mm 11.4° 992.5 hPa 1.4 m/s 40.4 mm
 04:59     21:47    Daglengte: 16:48 Zaterdag 31 Jul
02:00 11.4° 993.8 hPa 0.9 m/s 40.8 mm 11.4° 993.8 hPa 0.9 m/s 40.8 mm
05:00 11.2° 995.2 hPa 0.9 m/s 40.8 mm 11.2° 995.2 hPa 0.9 m/s 40.8 mm
08:00 12.2° 996.5 hPa 2.2 m/s 40.8 mm 12.2° 996.5 hPa 2.2 m/s 40.8 mm
11:00 11.5° 998.2 hPa 2.0 m/s 40.9 mm 11.5° 998.2 hPa 2.0 m/s 40.9 mm
14:00 15.7° 998.4 hPa 2.9 m/s 41.3 mm 15.7° 998.4 hPa 2.9 m/s 41.3 mm
17:00 15.8° 998.2 hPa 2.0 m/s 41.4 mm 15.8° 998.2 hPa 2.0 m/s 41.4 mm
20:00 13.8° 998.6 hPa 2.2 m/s 41.4 mm 13.8° 998.6 hPa 2.2 m/s 41.4 mm
23:00 12.1° 999.2 hPa 2.2 m/s 41.5 mm 12.1° 999.2 hPa 2.2 m/s 41.5 mm
 05:01     21:45    Daglengte: 16:44 Zondag 01 Aug
02:00 11.4° 999.7 hPa 2.6 m/s 41.6 mm 11.4° 999.7 hPa 2.6 m/s 41.6 mm
05:00 10.7° 1000.2 hPa 3.0 m/s 41.6 mm 10.7° 1000.2 hPa 3.0 m/s 41.6 mm
08:00 10.8° 1001.2 hPa 3.0 m/s 41.8 mm 10.8° 1001.2 hPa 3.0 m/s 41.8 mm
14:00 13.4° 1003.4 hPa 2.0 m/s 42.1 mm 13.4° 1003.4 hPa 2.0 m/s 42.1 mm
20:00 16.0° 1003.8 hPa 0.3 m/s 42.2 mm 16.0° 1003.8 hPa 0.3 m/s 42.2 mm
 05:03     21:42    Daglengte: 16:39 Maandag 02 Aug
02:00 11.7° 1006.0 hPa 1.1 m/s 42.2 mm 11.7° 1006.0 hPa 1.1 m/s 42.2 mm
08:00 12.3° 1007.9 hPa 1.3 m/s 42.2 mm 12.3° 1007.9 hPa 1.3 m/s 42.2 mm
14:00 20.5° 1008.4 hPa 1.4 m/s 42.2 mm 20.5° 1008.4 hPa 1.4 m/s 42.2 mm
20:00 16.2° 1009.5 hPa 0.3 m/s 42.2 mm 16.2° 1009.5 hPa 0.3 m/s 42.2 mm
 05:06     21:40    Daglengte: 16:34 Dinsdag 03 Aug
02:00 13.2° 1011.6 hPa 1.5 m/s 42.2 mm 13.2° 1011.6 hPa 1.5 m/s 42.2 mm
14:00 21.2° 1013.0 hPa 0.1 m/s 42.2 mm 21.2° 1013.0 hPa 0.1 m/s 42.2 mm
20:00 16.8° 1012.1 hPa 1.6 m/s 42.3 mm 16.8° 1012.1 hPa 1.6 m/s 42.3 mm
 05:08     21:37    Daglengte: 16:29 Woensdag 04 Aug
02:00 11.3° 1005.3 hPa 0.9 m/s 0.3 mm
08:00 13.4° 1005.9 hPa 1.3 m/s 0.2 mm
14:00 19.6° 1005.4 hPa 0.8 m/s 0.2 mm
20:00 17.0° 1005.5 hPa 1.1 m/s 1.7 mm
 05:10     21:35    Daglengte: 16:25 Donderdag 05 Aug
02:00 12.0° 1007.1 hPa 0.7 m/s 0.4 mm
08:00 13.9° 1007.5 hPa 0.8 m/s 0.7 mm
14:00 19.9° 1007.2 hPa 1.6 m/s 1.3 mm
20:00 17.1° 1007.1 hPa 1.6 m/s 1.6 mm
 05:13     21:32    Daglengte: 16:19 Vrijdag 06 Aug
02:00 11.9° 1008.3 hPa 0.6 m/s 0.7 mm
08:00 14.2° 1008.4 hPa 0.5 m/s 0.8 mm
14:00 19.4° 1007.8 hPa 1.7 m/s 1.5 mm
20:00 17.0° 1007.3 hPa 1.6 m/s 1.5 mm
 05:15     21:30    Daglengte: 16:15 Zaterdag 07 Aug
02:00 12.0° 1008.5 hPa 0.5 m/s 0.5 mm
08:00 14.0° 1008.6 hPa 0.6 m/s 0.9 mm
14:00 19.2° 1007.9 hPa 1.1 m/s 1.8 mm
20:00 16.9° 1007.5 hPa 0.9 m/s 1.7 mm
 05:17     21:27    Daglengte: 16:10 Zondag 08 Aug
02:00 12.4° 1008.5 hPa 0.9 m/s 1.2 mm
08:00 14.1° 1008.1 hPa 0.6 m/s 2.0 mm
14:00 19.1° 1007.4 hPa 1.0 m/s 2.1 mm
20:00 16.6° 1007.1 hPa 1.1 m/s 2.9 mm
 05:20     21:24    Daglengte: 16:04 Maandag 09 Aug
02:00 12.8° 1007.7 hPa 0.4 m/s 1.4 mm
08:00 14.1° 1007.6 hPa 0.1 m/s 1.3 mm
FMI Hirlam - 7.5 km EWN WRFDA - 12 km DWD ICON - 7 km GFS - 25 km Basiskaart






























































Updatetijd (Europe/Amsterdam) Resolutie Lengte Stap
FMI Hirlam 02:00, 08:00, 14:00, 20:00 7.5 km 49h 1h
EWN WRFDA 22:15, 04:15, 10:15, 16:15 12 km 73h 1h
DWD ICON 23:45, 05:45, 11:45, 17:45 7 km 75h 1h
GFS 02:15, 08:15, 14:15, 20:15 25 km 237h 3h
30+ mm
25-30 mm
20-25 mm
15-20 mm
10-15 mm
6-10 mm
4-6 mm
2-4 mm
1-2 mm
0.5-1 mm
0.2-0.5 mm
0.1-0.2 mm
30+ mm
25-30 mm
20-25 mm
15-20 mm
10-15 mm
6-10 mm
4-6 mm
2-4 mm
1-2 mm
0.5-1 mm
0.2-0.5 mm
0.1-0.2 mm
Sneeuwval
Natte sneeuw
Hagel
Vorst
30+ mm
25-30 mm
20-25 mm
15-20 mm
10-15 mm
6-10 mm
4-6 mm
2-4 mm
1-2 mm
0.5-1 mm
0.2-0.5 mm
0.1-0.2 mm
Sneeuwval
Natte sneeuw
Hagel
Vorst
Onweer
50 mm
40 mm
30 mm
26 mm
22 mm
18 mm
14 mm
10 mm
9 mm
8 mm
7 mm
6 mm
5 mm
4.5 mm
4 mm
3.5 mm
3 mm
2.5 mm
2 mm
1.5 mm
1 mm
0.8 mm
0.6 mm
0.4 mm
0.2 mm
0.05 mm
35°
30°
25°
20°
15°
10°
-5°
-10°
-15°
-20°
-25°
-30°
-35°
33> m/s
29 m/s
25 m/s
21 m/s
17 m/s
14 m/s
11 m/s
8 m/s
5 m/s
3 m/s
0 m/s
2600 J/kg
2400 J/kg
2200 J/kg
2000 J/kg
1800 J/kg
1600 J/kg
1400 J/kg
1200 J/kg
1000 J/kg
800 J/kg
600 J/kg
400 J/kg
200 J/kg
70 dBZ
65 dBZ
60 dBZ
55 dBZ
50 dBZ
45 dBZ
40 dBZ
35 dBZ
30 dBZ
25 dBZ
20 dBZ
15 dBZ
10 dBZ
5 dBZ
-1 K
-2 K
-3 K
-4 K
-5 K
-6 K
-7 K
-8 K
-9 K
950 m²/s²
900 m²/s²
850 m²/s²
800 m²/s²
750 m²/s²
700 m²/s²
650 m²/s²
600 m²/s²
550 m²/s²
500 m²/s²
450 m²/s²
400 m²/s²
350 m²/s²
300 m²/s²
250 m²/s²
200 m²/s²
150 m²/s²
100 m²/s²
46 m/s
44 m/s
42 m/s
40 m/s
38 m/s
36 m/s
34 m/s
32 m/s
30 m/s
28 m/s
26 m/s
24 m/s
22 m/s
20 m/s
16 m/s
12 m/s
8 m/s
4 m/s
30 m/s
28 m/s
26 m/s
24 m/s
22 m/s
20 m/s
18 m/s
16 m/s
14 m/s
12 m/s
10 m/s
8 m/s
6 m/s
4 m/s
2 m/s
3.0
2.8
2.6
2.4
2.2
2.0
1.8
1.6
1.4
1.2
1.0
0.8
0.6
0.4
0.2
15
14
13
12
11
10
9
8
7
6
5
4
3
2
1
90%
80%
70%
60%
50%
40%
30%
20%
10%
42
40
38
36
34
32
30
28
26
24
22
20
18
16
14
12
90+ cm
80-90 cm
70-80 cm
60-70 cm
50-60 cm
40-50 cm
30-40 cm
20-30 cm
10-20 cm
1-10 cm
Sneeuwval
Natte sneeuw
Regen
>120 mm
115 mm
110 mm
105 mm
100 mm
95 mm
90 mm